Location: Hackberry
(29.5783°N, 96.8797°W)
Time: 13:34:15
(UTC+00:00)

Transit 2A - Pass Details

Date: 12 November 2024
Orbit: 592 x 956 km, 66.7° (Epoch: 02 December)

Event Time Altitude Azimuth Distance (km) Brightness Sun altitude
Exits shadow 10:57:32 52° 305° (NW) 1,176 6.5 -24.5°
Drops below altitude 10° 11:03:28 10° 14° (NNE) 2,681 8.9 -23.2°
Sets 11:06:06 0° 19° (NNE) 3,613 9.6 -22.7°
